Location: Kolin
(50.0330°N, 15.2000°E)
Time: 02:40:43
(UTC+01:00)

ISS - Pass Details

Date: 08 October 2020
Orbit: 417 x 420 km, 51.6° (Epoch: 25 October)

Event Time Altitude Azimuth Distance (km) Brightness Sun altitude
Rises 18:46:25 0° 284° (WNW) 2,368 1.8 -4.8°
Reaches altitude 10° 18:48:53 10° 267° (W) 1,501 1.0 -5.2°
Maximum altitude 18:51:25 20° 218° (SW) 1,034 -1.2 -5.6°
Drops below altitude 10° 18:53:57 10° 169° (S) 1,495 -1.0 -6.0°
Sets 18:56:23 0° 152° (SSE) 2,355 -0.2 -6.4°
